TimeEST,TemperatureF,Dew PointF,Humidity,Sea Level PressureIn,VisibilityMPH,Wind Direction,Wind SpeedMPH,Gust SpeedMPH,PrecipitationIn,Events,Conditions,WindDirDegrees,DateUTC
12:15 AM,18.5,9.3,67,30.43,10.0,North,-9999.0,-,N/A,,Clear,0,2013-01-25 05:15:00
12:35 AM,18.5,9.0,66,30.43,10.0,North,-9999.0,-,N/A,,Clear,0,2013-01-25 05:35:00
12:55 AM,18.5,9.1,67,30.41,10.0,North,-9999.0,-,N/A,,Clear,0,2013-01-25 05:55:00
1:15 AM,18.9,9.3,66,30.42,10.0,North,-9999.0,-,N/A,,Clear,0,2013-01-25 06:15:00
1:55 AM,19.2,9.3,65,30.38,10.0,North,-9999.0,-,N/A,,Scattered Clouds,0,2013-01-25 06:55:00
2:15 AM,19.4,9.0,64,30.36,10.0,North,-9999.0,-,N/A,,Scattered Clouds,0,2013-01-25 07:15:00
2:35 AM,19.4,8.6,63,30.36,10.0,North,-9999.0,-,N/A,,Clear,0,2013-01-25 07:35:00
2:55 AM,19.9,9.1,63,30.35,10.0,North,-9999.0,-,N/A,,Clear,0,2013-01-25 07:55:00
3:15 AM,19.8,8.6,62,30.32,10.0,North,-9999.0,-,N/A,,Clear,0,2013-01-25 08:15:00
3:35 AM,20.3,8.6,61,30.32,10.0,North,-9999.0,-,N/A,,Clear,0,2013-01-25 08:35:00
3:55 AM,20.5,8.4,60,30.32,10.0,North,-9999.0,-,N/A,,Clear,0,2013-01-25 08:55:00
4:15 AM,21.0,8.4,58,30.32,10.0,North,-9999.0,-,N/A,,Clear,0,2013-01-25 09:15:00
4:35 AM,21.2,8.6,58,30.31,10.0,North,-9999.0,-,N/A,,Clear,0,2013-01-25 09:35:00
4:55 AM,21.7,8.6,57,30.30,10.0,North,-9999.0,-,N/A,,Clear,0,2013-01-25 09:55:00
5:15 AM,21.9,8.4,56,30.28,10.0,North,-9999.0,-,N/A,,Clear,0,2013-01-25 10:15:00
5:55 AM,22.3,8.4,55,30.26,10.0,North,-9999.0,-,N/A,,Clear,0,2013-01-25 10:55:00
6:15 AM,22.6,8.4,55,30.25,10.0,North,-9999.0,-,N/A,,Clear,0,2013-01-25 11:15:00
6:35 AM,23.4,8.6,53,30.24,10.0,North,-9999.0,-,N/A,,Mostly Cloudy,0,2013-01-25 11:35:00
6:55 AM,23.7,8.8,53,30.25,10.0,North,-9999.0,-,N/A,,Overcast,0,2013-01-25 11:55:00
7:15 AM,24.3,9.1,53,30.23,10.0,North,-9999.0,-,N/A,,Overcast,0,2013-01-25 12:15:00
7:35 AM,24.6,9.0,51,30.22,10.0,North,-9999.0,-,N/A,,Overcast,0,2013-01-25 12:35:00
7:55 AM,25.0,9.5,52,30.23,10.0,North,-9999.0,-,N/A,,Overcast,0,2013-01-25 12:55:00
8:15 AM,25.2,9.5,52,30.22,10.0,North,-9999.0,-,N/A,,Overcast,0,2013-01-25 13:15:00
8:35 AM,25.5,9.5,51,30.21,10.0,North,-9999.0,-,N/A,,Overcast,0,2013-01-25 13:35:00
8:55 AM,25.7,10.0,52,30.20,10.0,North,-9999.0,-,N/A,,Overcast,0,2013-01-25 13:55:00
9:15 AM,26.2,10.2,51,30.20,7.0,North,-9999.0,-,N/A,,Overcast,0,2013-01-25 14:15:00
9:35 AM,25.7,13.1,59,30.18,4.0,North,-9999.0,-,N/A,Snow,Light Snow,0,2013-01-25 14:35:00
9:55 AM,24.4,18.1,77,30.16,1.2,North,-9999.0,-,N/A,Snow,Light Snow,0,2013-01-25 14:55:00
10:15 AM,23.9,20.5,87,30.18,1.5,North,-9999.0,-,N/A,Snow,Light Snow,0,2013-01-25 15:15:00
10:35 AM,23.9,21.4,90,30.17,0.8,North,-9999.0,-,N/A,Snow,Light Snow,0,2013-01-25 15:35:00
10:55 AM,23.9,22.1,93,30.15,0.5,North,-9999.0,-,N/A,Snow,Snow,0,2013-01-25 15:55:00
11:15 AM,24.3,22.6,94,30.14,0.5,North,-9999.0,-,N/A,Snow,Light Snow,0,2013-01-25 16:15:00
11:35 AM,24.6,23.0,94,30.13,1.5,North,-9999.0,-,N/A,Snow,Light Snow,0,2013-01-25 16:35:00
11:55 AM,24.6,23.0,94,30.11,2.0,North,-9999.0,-,N/A,Snow,Light Snow,0,2013-01-25 16:55:00
12:15 PM,25.0,23.4,94,30.11,2.5,North,-9999.0,-,N/A,Snow,Light Snow,0,2013-01-25 17:15:00
12:35 PM,25.3,23.4,92,30.10,2.0,North,-9999.0,-,N/A,Snow,Light Snow,0,2013-01-25 17:35:00
12:55 PM,25.7,23.9,93,30.08,1.5,North,-9999.0,-,N/A,Snow,Light Snow,0,2013-01-25 17:55:00
1:15 PM,25.7,24.6,96,30.08,2.0,North,-9999.0,-,N/A,Snow,Light Snow,0,2013-01-25 18:15:00
1:35 PM,25.7,24.8,96,30.07,1.5,North,-9999.0,-,N/A,Snow,Light Snow,0,2013-01-25 18:35:00
1:55 PM,26.4,25.3,96,30.06,2.0,North,-9999.0,-,N/A,Snow,Light Snow,0,2013-01-25 18:55:00
2:15 PM,26.6,25.7,96,30.05,1.8,North,-9999.0,-,N/A,,Overcast,0,2013-01-25 19:15:00
2:35 PM,27.1,26.4,97,30.04,1.8,North,-9999.0,-,N/A,,Overcast,0,2013-01-25 19:35:00
2:55 PM,27.5,27.3,99,30.04,1.5,North,-9999.0,-,N/A,,Overcast,0,2013-01-25 19:55:00
3:15 PM,28.8,28.6,99,30.04,1.0,North,-9999.0,-,N/A,,Overcast,0,2013-01-25 20:15:00
3:35 PM,28.4,28.2,99,30.03,1.8,North,-9999.0,-,N/A,,Overcast,0,2013-01-25 20:35:00
3:55 PM,28.9,28.4,98,30.03,1.8,North,-9999.0,-,N/A,Snow,Light Snow,0,2013-01-25 20:55:00
4:15 PM,29.7,29.7,100,30.03,1.0,North,-9999.0,-,N/A,Snow,Light Snow,0,2013-01-25 21:15:00
4:35 PM,29.8,29.8,100,30.03,1.0,North,-9999.0,-,N/A,,Overcast,0,2013-01-25 21:35:00
4:55 PM,30.2,30.2,100,30.05,2.5,North,-9999.0,-,N/A,,Overcast,0,2013-01-25 21:55:00
5:15 PM,30.6,30.4,99,30.04,4.0,North,-9999.0,-,N/A,,Overcast,0,2013-01-25 22:15:00
5:35 PM,30.6,30.6,100,30.06,4.0,North,-9999.0,-,N/A,,Overcast,0,2013-01-25 22:35:00
5:55 PM,30.9,30.7,99,30.06,1.2,North,-9999.0,-,N/A,Snow,Light Snow,0,2013-01-25 22:55:00
6:15 PM,31.1,31.1,100,30.05,1.5,North,-9999.0,-,N/A,Snow,Light Snow,0,2013-01-25 23:15:00
6:35 PM,31.1,31.1,100,30.07,2.5,North,-9999.0,-,N/A,,Overcast,0,2013-01-25 23:35:00
6:55 PM,31.8,31.8,100,30.07,2.0,North,-9999.0,-,N/A,,Overcast,0,2013-01-25 23:55:00
7:15 PM,32.0,32.0,100,30.08,3.0,North,-9999.0,-,N/A,,Overcast,0,2013-01-26 00:15:00
7:35 PM,32.0,32.0,100,30.08,3.0,North,-9999.0,-,N/A,,Overcast,0,2013-01-26 00:35:00
7:55 PM,32.2,32.2,100,30.09,4.0,North,-9999.0,-,N/A,,Overcast,0,2013-01-26 00:55:00
8:15 PM,32.4,32.4,100,30.09,4.0,North,-9999.0,-,N/A,,Overcast,0,2013-01-26 01:15:00
8:35 PM,32.5,32.5,100,30.09,4.0,North,-9999.0,-,N/A,,Overcast,0,2013-01-26 01:35:00
8:55 PM,32.5,32.5,100,30.09,5.0,North,-9999.0,-,N/A,,Overcast,0,2013-01-26 01:55:00
9:15 PM,32.9,32.9,100,30.10,7.0,North,-9999.0,-,N/A,,Overcast,0,2013-01-26 02:15:00
9:35 PM,32.9,32.9,100,30.11,5.0,North,-9999.0,-,N/A,Snow,Light Snow,0,2013-01-26 02:35:00
9:55 PM,32.9,32.9,100,30.11,2.0,North,-9999.0,-,N/A,Snow,Light Snow,0,2013-01-26 02:55:00
10:15 PM,32.9,32.9,100,30.11,3.0,North,-9999.0,-,N/A,Snow,Light Snow,0,2013-01-26 03:15:00
10:35 PM,32.9,32.9,100,30.12,4.0,North,-9999.0,-,N/A,Snow,Light Snow,0,2013-01-26 03:35:00
10:55 PM,32.9,32.9,100,30.13,10.0,North,-9999.0,-,N/A,,Overcast,0,2013-01-26 03:55:00
11:15 PM,32.9,32.9,100,30.13,10.0,North,-9999.0,-,N/A,,Overcast,0,2013-01-26 04:15:00
11:35 PM,32.9,32.5,99,30.13,10.0,North,-9999.0,-,N/A,,Overcast,0,2013-01-26 04:35:00
11:55 PM,32.9,32.2,97,30.14,10.0,North,-9999.0,-,N/A,,Overcast,0,2013-01-26 04:55:00